Wind_Speed
17 18 16 16 15 14 13 12 11 11 12 14 14 14 14 14 14 14 14 14 14 14 15 15 16 16 16 17 17 18 19 20 21 22 23 24 26 27 28 28 29 29 29 29
18 18 18 17 16 15 14 14 13 12 13 13 14 15 16 15 15 16 16 16 17 17 17 18 19 20 20 20 20 21 22 23 23 24 25 26 28 29 29 30 31 31 31 31
18 19 18 16 15 16 16 15 15 14 15 14 15 16 17 18 18 18 19 20 20 20 20 21 22 23 23 23 23 24 24 26 27 27 28 29 30 31 32 32 33 33 33 34
19 20 19 17 17 17 18 17 17 17 17 16 17 17 19 20 20 20 21 22 23 24 24 25 25 25 26 26 26 27 28 29 30 31 31 32 33 33 35 35 36 36 36 37
21 20 18 19 18 19 18 18 18 19 19 19 19 20 20 21 21 22 23 25 26 27 28 29 29 29 29 30 30 31 31 32 32 33 34 35 36 36 37 38 38 39 40 41
22 21 20 21 19 18 18 18 18 18 19 20 20 21 21 21 23 24 25 27 29 30 31 32 31 32 32 33 34 34 34 34 34 35 36 37 38 39 40 40 41 42 43 44
22 21 21 21 19 18 18 18 18 18 19 19 20 21 22 23 24 25 26 27 29 30 32 33 33 33 32 33 35 36 37 37 37 38 38 40 41 42 43 44 44 45 46 47
23 22 22 21 20 20 19 19 19 19 19 19 20 21 22 24 24 26 27 28 30 31 31 32 32 33 34 35 36 37 38 39 39 40 41 42 44 45 46 46 47 48 49 50
23 23 23 21 21 21 21 21 21 20 21 21 21 22 23 24 25 26 28 29 31 32 33 32 32 33 34 35 36 37 39 40 40 42 43 44 45 46 47 48 49 50 52 53
22 23 23 23 22 22 22 23 23 23 23 23 24 24 25 26 26 27 28 29 30 31 31 31 32 33 34 35 36 38 40 40 42 43 44 45 46 48 49 50 51 52 54 55
24 24 23 24 24 24 24 25 25 25 25 25 26 27 27 27 27 27 27 27 26 27 28 30 32 33 34 35 36 38 39 41 42 44 45 46 48 49 51 52 54 56 57 59
22 22 24 24 24 24 25 25 26 26 26 26 27 28 28 29 29 29 29 28 28 29 30 32 33 34 35 36 38 39 41 42 44 45 47 48 50 52 54 56 57 59 61 63
21 22 23 23 24 24 25 26 26 26 27 27 28 29 30 31 31 31 31 30 31 32 33 33 34 35 37 38 40 41 43 44 46 48 50 51 53 55 57 59 61 63 65 66
21 22 23 23 24 25 25 26 27 27 28 30 31 32 32 33 33 32 32 33 33 34 35 36 37 38 39 41 43 44 46 48 49 51 53 55 57 59 61 63 65 66 68 69
21 22 22 23 24 25 25 26 27 28 29 31 32 33 34 35 35 35 35 35 36 37 38 39 39 41 42 44 46 47 50 52 54 56 57 59 61 63 65 66 67 68 69 69
20 21 22 23 24 25 25 26 28 29 30 31 33 34 35 36 36 37 38 38 39 40 40 41 42 43 45 47 49 51 53 55 57 59 61 62 64 65 65 66 66 66 65 64
21 22 23 24 25 26 27 28 29 31 32 34 34 35 35 35 36 38 39 39 39 40 41 43 45 47 49 51 52 54 56 58 59 60 61 62 63 63 62 61 60 59 57 55
22 23 24 25 26 27 28 29 30 30 31 31 33 34 35 37 38 38 38 39 40 42 44 46 48 50 51 53 54 56 57 58 59 59 59 58 58 56 55 54 53 51 49 47
24 25 26 27 27 28 28 29 30 31 32 34 35 36 38 38 39 40 41 42 43 45 46 48 49 51 52 53 54 55 55 55 55 54 53 51 50 50 49 48 46 44 43 41
25 26 27 27 28 29 30 31 31 32 33 34 36 37 39 40 42 43 43 44 45 46 48 49 50 51 52 52 51 51 50 49 48 47 46 46 46 46 44 42 41 40 38 36
26 27 28 28 29 30 31 32 32 33 35 36 37 39 40 42 43 44 45 46 47 48 49 49 48 48 47 47 46 45 45 44 43 43 42 42 41 40 38 37 36 34 32 30
29 30 31 32 32 33 35 36 36 37 39 40 41 42 43 44 45 46 46 47 47 47 46 45 44 43 42 41 41 41 40 39 39 38 38 37 36 34 33 31 29 27 25 24
30 31 32 33 34 36 37 38 39 40 42 43 44 44 45 45 45 45 45 44 43 43 42 40 39 38 38 37 37 36 36 35 35 34 33 32 30 29 27 25 24 22 21 19
31 32 34 35 37 38 39 40 41 42 42 43 43 43 43 43 43 42 41 40 39 38 37 36 36 34 33 33 33 33 32 31 30 29 28 27 26 24 22 21 19 18 17 16
33 34 36 37 38 39 40 40 40 41 41 41 41 41 40 40 39 38 37 36 35 34 34 33 32 31 30 30 29 29 28 27 26 25 25 24 22 20 19 18 17 15 14 13
35 35 36 37 37 38 38 39 39 39 38 38 37 36 35 34 34 33 32 32 31 31 30 29 28 27 27 26 26 25 25 23 22 22 21 20 19 17 17 15 15 14 13 12
34 34 35 35 36 36 36 36 35 34 33 33 33 32 31 31 30 29 29 29 28 27 26 25 24 24 24 23 23 22 21 20 19 19 18 17 16 15 15 14 13 13 12 11
Wind_Direction
246 254 262 263 265 266 270 273 273 271 268 264 261 259 261 264 266 267 268 271 274 272 269 268 267 264 261 260 260 260 260 261 263 265 267 269 270 272 274 275 277 278 280 281
251 257 260 260 259 263 267 270 271 271 267 261 256 255 258 262 265 265 265 267 271 272 270 268 267 266 265 263 262 262 262 263 265 267 269 270 272 275 276 277 278 280 281 282
253 258 258 258 259 261 263 266 267 267 268 265 260 254 255 259 263 263 264 266 268 269 269 267 267 264 262 263 264 265 265 267 268 270 271 272 274 275 276 277 279 281 282 283
249 254 257 258 258 259 260 262 265 267 268 266 265 262 260 259 260 259 261 265 267 267 265 265 265 265 262 260 262 264 265 267 268 269 271 273 274 275 276 278 280 280 281 283
245 253 261 263 260 259 259 261 265 267 267 268 267 266 262 261 259 258 258 261 263 264 264 264 263 263 263 262 262 263 265 269 270 271 272 273 275 277 278 279 280 281 282 283
245 249 255 260 260 259 261 264 267 268 269 269 269 266 263 262 259 258 259 261 262 261 262 261 260 260 262 264 264 264 266 267 270 273 274 276 278 279 280 281 282 283 284 284
246 250 255 256 258 258 259 262 265 268 270 270 268 266 266 264 262 260 260 262 263 262 261 260 260 260 262 266 267 267 268 269 271 272 274 277 280 281 281 282 282 283 284 284
242 246 251 253 256 258 260 264 267 270 270 271 271 269 268 267 266 265 264 263 263 261 260 261 260 261 263 266 270 271 272 272 274 275 277 279 280 280 282 283 284 284 285 285
239 244 249 254 256 259 261 264 268 271 272 273 273 272 270 270 271 271 269 266 264 263 262 262 262 263 265 268 270 272 274 275 276 278 279 280 282 283 284 284 285 285 285 285
241 245 250 254 257 260 262 265 269 271 273 274 276 275 272 271 272 273 271 271 268 267 267 266 266 269 271 274 276 276 277 279 281 282 283 284 284 285 285 286 286 286 286 286
246 249 253 256 258 261 264 267 269 272 275 276 277 275 273 273 274 273 272 272 272 272 272 273 275 275 277 279 281 282 282 283 284 284 285 286 286 287 287 287 287 287 287 287
251 254 257 259 261 264 266 268 270 273 276 276 275 273 272 274 275 275 275 277 278 278 279 279 279 281 283 284 285 285 285 285 286 287 287 288 288 289 289 289 289 289 289 288
257 258 260 262 263 266 268 270 270 272 274 275 274 273 273 273 274 275 276 278 279 280 281 282 283 285 286 287 287 288 288 289 289 289 290 290 290 290 290 291 291 290 290 290
260 261 263 265 267 269 270 270 271 271 273 274 274 273 274 275 277 277 276 278 280 282 283 284 286 288 289 290 290 290 291 291 291 291 291 292 292 292 292 292 292 292 291 291
262 264 265 267 269 270 270 270 271 272 274 274 275 276 276 277 276 276 276 278 280 282 284 285 287 289 290 291 292 292 293 293 294 294 294 294 294 294 294 294 293 293 293 292
265 266 267 268 269 270 271 272 274 275 275 276 277 277 277 276 276 277 279 280 282 283 285 286 288 290 292 293 294 295 295 295 296 296 296 296 296 296 296 295 295 295 295 295
267 269 270 271 272 273 274 275 276 276 277 277 278 278 279 280 281 281 281 281 283 285 287 289 291 293 294 295 296 297 297 298 298 297 297 297 297 297 297 297 297 298 298 298
270 271 272 273 275 275 276 277 278 278 279 280 281 280 281 282 282 281 282 285 287 290 292 293 294 296 297 298 298 298 299 299 298 298 298 298 298 298 299 299 300 301 300 300
273 274 274 276 277 278 278 279 280 281 282 282 281 281 281 284 286 286 287 289 291 292 294 295 297 298 299 299 299 299 299 299 299 299 299 300 300 301 302 302 302 302 302 301
274 275 276 278 277 277 279 280 281 282 282 282 282 283 285 287 288 289 290 292 293 295 297 298 299 299 299 299 299 299 299 300 300 300 301 302 303 303 304 304 304 304 304 304
275 277 278 279 279 279 280 282 282 283 282 283 285 286 288 290 291 293 294 295 296 298 299 300 299 299 299 299 299 300 300 301 301 303 304 305 306 306 306 306 306 306 306 306
277 278 279 280 280 281 281 282 283 284 286 288 290 291 292 293 295 296 297 298 299 300 300 300 300 299 299 300 301 302 302 303 304 306 307 308 309 309 310 311 311 311 311 311
277 278 278 279 279 280 281 282 284 286 288 290 291 293 294 295 297 298 298 299 299 299 299 299 299 300 300 302 302 303 305 306 307 309 310 311 312 313 315 315 316 316 317 317
277 277 277 278 279 281 283 285 287 289 290 292 293 294 296 296 297 297 298 298 298 298 298 298 299 300 302 304 305 307 308 308 309 311 313 315 316 318 319 321 323 323 324 324
278 279 280 281 282 284 286 287 289 291 292 293 294 295 296 296 297 297 297 298 298 298 299 299 300 301 302 304 307 309 310 310 311 313 315 318 320 320 321 324 328 329 331 332
281 281 282 283 284 286 288 289 291 292 293 294 295 295 296 296 297 297 298 298 299 300 301 302 302 303 304 306 308 310 312 313 314 317 319 321 322 323 324 326 330 333 334 335
281 282 283 284 285 287 288 290 291 292 293 294 295 295 295 296 297 298 299 300 301 302 303 303 303 304 306 308 309 312 314 316 317 321 324 326 327 328 328 328 329 332 332 333
Height
5848 5848 5849 5849 5848 5848 5848 5848 5847 5847 5846 5844 5843 5842 5842 5842 5842 5842 5842 5843 5843 5843 5843 5843 5844 5844 5845 5845 5846 5846 5846 5846 5846 5847 5846 5846 5846 5845 5845 5844 5843 5842 5841 5840
5843 5843 5843 5844 5843 5843 5843 5843 5842 5842 5841 5839 5838 5838 5838 5838 5838 5838 5838 5839 5839 5838 5839 5839 5839 5839 5840 5840 5840 5840 5841 5841 5840 5840 5840 5839 5839 5838 5837 5836 5835 5834 5833 5831
5838 5838 5838 5839 5839 5838 5838 5838 5838 5837 5837 5835 5834 5834 5834 5834 5834 5834 5834 5834 5834 5834 5834 5834 5834 5834 5834 5834 5834 5834 5834 5834 5834 5833 5833 5832 5831 5830 5829 5828 5826 5825 5823 5822
5832 5833 5833 5836 5833 5833 5832 5832 5832 5831 5831 5830 5829 5829 5828 5828 5828 5828 5828 5828 5828 5828 5828 5828 5828 5828 5827 5828 5828 5828 5827 5827 5826 5825 5825 5824 5823 5822 5820 5819 5817 5815 5813 5812
5826 5827 5828 5828 5827 5827 5827 5827 5826 5825 5825 5824 5823 5823 5823 5822 5822 5822 5822 5822 5822 5822 5821 5821 5821 5821 5820 5820 5820 5820 5819 5818 5817 5816 5815 5814 5813 5812 5810 5808 5806 5804 5803 5800
5819 5821 5822 5822 5821 5820 5822 5821 5820 5819 5819 5818 5818 5817 5817 5816 5816 5816 5816 5815 5815 5814 5814 5814 5813 5813 5812 5812 5811 5811 5810 5809 5808 5807 5806 5805 5803 5801 5799 5797 5795 5793 5790 5788
5812 5814 5815 5814 5814 5815 5817 5816 5814 5813 5812 5812 5811 5811 5811 5810 5809 5809 5808 5808 5807 5806 5806 5805 5805 5804 5803 5803 5802 5801 5800 5799 5798 5797 5796 5794 5792 5790 5788 5786 5783 5780 5778 5775
5805 5807 5809 5807 5808 5809 5809 5808 5807 5807 5806 5805 5805 5804 5803 5803 5802 5801 5800 5800 5799 5798 5797 5796 5795 5795 5794 5794 5793 5792 5791 5789 5788 5787 5785 5783 5781 5779 5776 5773 5770 5768 5765 5761
5798 5801 5800 5800 5801 5801 5802 5801 5801 5801 5800 5799 5798 5797 5796 5795 5795 5794 5792 5791 5790 5789 5788 5787 5787 5787 5786 5785 5783 5782 5781 5779 5778 5776 5774 5772 5769 5766 5763 5760 5757 5754 5750 5747
5790 5791 5792 5793 5794 5794 5794 5794 5794 5794 5793 5792 5791 5790 5789 5788 5787 5786 5784 5783 5782 5781 5780 5779 5779 5777 5777 5776 5774 5772 5771 5769 5767 5765 5762 5759 5756 5753 5750 5746 5742 5738 5734 5730
5783 5784 5785 5786 5787 5787 5787 5787 5787 5786 5785 5784 5783 5782 5781 5780 5779 5778 5777 5775 5774 5773 5772 5771 5770 5769 5767 5766 5764 5762 5760 5758 5755 5752 5749 5746 5742 5739 5735 5730 5726 5722 5718 5713
5777 5778 5779 5779 5780 5780 5780 5780 5779 5778 5777 5776 5775 5774 5773 5772 5771 5770 5769 5768 5766 5765 5764 5762 5761 5760 5758 5756 5754 5751 5749 5746 5743 5739 5736 5732 5728 5724 5719 5714 5709 5704 5699 5694
5770 5771 5771 5772 5772 5772 5772 5772 5771 5770 5769 5768 5767 5766 5765 5764 5762 5761 5760 5759 5758 5756 5755 5753 5752 5750 5748 5745 5743 5740 5736 5733 5729 5725 5721 5717 5712 5707 5702 5697 5691 5686 5680 5673
5763 5764 5764 5765 5765 5764 5764 5764 5763 5762 5761 5760 5759 5758 5756 5755 5754 5752 5751 5750 5749 5747 5745 5743 5741 5739 5736 5733 5730 5727 5723 5719 5715 5710 5706 5701 5695 5690 5684 5678 5672 5665 5659 5652
5756 5757 5757 5757 5757 5757 5756 5756 5755 5754 5753 5752 5750 5749 5747 5746 5745 5743 5742 5740 5738 5737 5735 5733 5730 5727 5724 5720 5717 5713 5709 5704 5699 5694 5689 5683 5677 5671 5664 5657 5651 5644 5637 5630
5750 5750 5750 5750 5749 5749 5749 5748 5747 5746 5745 5743 5741 5740 5738 5736 5735 5733 5732 5730 5728 5726 5724 5721 5718 5715 5711 5707 5703 5698 5693 5688 5683 5677 5671 5664 5658 5651 5644 5637 5630 5622 5615 5609
5743 5743 5743 5742 5742 5741 5741 5740 5739 5737 5736 5734 5732 5730 5728 5726 5724 5723 5721 5719 5717 5714 5712 5709 5705 5701 5697 5692 5688 5682 5677 5671 5665 5659 5652 5646 5639 5632 5625 5618 5611 5604 5597 5590
5736 5736 5736 5735 5734 5733 5732 5731 5730 5728 5727 5725 5723 5721 5719 5717 5714 5712 5710 5707 5705 5702 5699 5695 5691 5687 5682 5677 5672 5666 5660 5654 5648 5641 5635 5628 5621 5614 5608 5601 5594 5588 5582 5575
5729 5728 5728 5727 5726 5725 5724 5723 5721 5720 5718 5716 5714 5711 5709 5707 5704 5701 5698 5696 5693 5689 5686 5681 5676 5672 5667 5661 5656 5650 5644 5638 5631 5625 5619 5612 5606 5600 5593 5587 5580 5574 5568 5562
5721 5721 5720 5719 5718 5716 5715 5714 5712 5710 5708 5706 5704 5702 5699 5696 5693 5690 5687 5683 5679 5675 5671 5667 5662 5657 5652 5646 5641 5635 5629 5623 5617 5611 5605 5599 5593 5586 5580 5574 5568 5562 5556 5551
5713 5712 5711 5710 5709 5708 5706 5704 5702 5700 5698 5696 5694 5691 5688 5685 5682 5678 5674 5670 5666 5662 5657 5653 5648 5642 5637 5632 5627 5621 5616 5610 5604 5599 5593 5587 5581 5575 5569 5563 5557 5552 5546 5541
5705 5703 5702 5701 5700 5698 5696 5694 5692 5690 5688 5685 5682 5680 5676 5673 5669 5665 5661 5657 5653 5648 5643 5639 5634 5629 5624 5619 5614 5609 5604 5599 5593 5588 5582 5577 5571 5565 5560 5554 5549 5544 5539 5534
5695 5694 5693 5691 5689 5688 5686 5684 5681 5679 5676 5674 5671 5667 5664 5660 5656 5652 5648 5644 5639 5635 5630 5626 5621 5617 5612 5608 5603 5598 5594 5589 5584 5579 5573 5568 5563 5557 5552 5547 5542 5538 5533 5529
5685 5684 5682 5681 5679 5677 5675 5672 5670 5667 5664 5661 5658 5655 5651 5647 5643 5639 5635 5631 5627 5623 5619 5615 5610 5606 5602 5598 5594 5589 5585 5580 5576 5571 5566 5561 5556 5551 5546 5542 5538 5533 5529 5526
5675 5673 5672 5670 5668 5666 5663 5660 5658 5655 5652 5649 5645 5642 5638 5635 5631 5627 5623 5619 5615 5612 5608 5604 5601 5597 5593 5589 5585 5581 5577 5573 5569 5564 5560 5555 5551 5546 5542 5538 5534 5530 5527 5523
5664 5663 5661 5659 5656 5654 5651 5649 5646 5643 5640 5637 5634 5630 5627 5623 5620 5616 5613 5609 5606 5602 5599 5595 5592 5589 5585 5582 5578 5574 5570 5567 5563 5559 5555 5551 5547 5543 5539 5535 5532 5528 5525 5522
5653 5651 5650 5648 5645 5643 5640 5638 5635 5632 5629 5626 5623 5620 5617 5614 5611 5607 5604 5601 5597 5594 5591 5588 5585 5582 5578 5575 5572 5568 5565 5561 5558 5554 5551 5547 5543 5540 5536 5533 5529 5526 5523 5520